User: anonymous   Login
Location: Unspecified
(0.0000°N, 0.0000°E)
Time: 07:43:21
(UTC+00:00)
Language:

USA 179 - Orbit

View from above orbital plane
View from above orbital plane
View from above satellite
View from above satellite

Ground track
Ground track

The orbit data is extracted from the following two-line orbital elements,

1 28384U 04034A   21158.60718182 0.00000000  00000-0  00000-0 0    09
2 28384  63.7960 122.2901 7199501 267.6129  16.1437  2.00619800    08
Epoch (UTC): 07 June 2021 14:34:20
Eccentricity: 0.7199501
inclination: 63.7960°
perigee height: 1058 km
apogee height: 39295 km
right ascension of ascending node: 122.2901°
argument of perigee: 267.6129°
revolutions per day: 2.00619800
mean anomaly at epoch: 16.1437°
orbit number at epoch: 0

The dashed part of the orbit path shows where the satellite is in the earth's shadow,  

DLR